Modesto, CA

2:24 AM PDT on April 24, 2018 (GMT -0700)
Modesto City-County-Sham

Weather History for KMOD - June, 2013

Change the Weather History Date:

Wednesday, June 26, 2013

  Actual Average Record
Temperature  
Mean Temperature 79 °F -  
Max Temperature 92 °F 92 °F 105 °F (2003)
Min Temperature 65 °F 62 °F 43 °F (1965)
Degree Days  
Heating Degree Days 0 0  
Month to date heating degree days 0 0  
Since 1 June heating degree days 0 0  
Since 1 July heating degree days 2148 2168  
Cooling Degree Days 14 12  
Month to date cooling degree days 266 248  
Year to date cooling degree days 512 447  
Since 1 June cooling degree days 266 248  
Growing Degree Days 28 (Base 50)    
Moisture  
Dew Point 62 °F    
Average Humidity 65    
Maximum Humidity 93    
Minimum Humidity 36    
Precipitation  
Precipitation 0.00 in 0.00 in 0.00 in (2018)
Month to date precipitation 0.07 0.11  
Year to date precipitation 3.21 8.74  
Since 1 July precipitation 9.09  
Snow  
Snow 0.00 in - - ()
Month to date snowfall 0.0  
Since 1 June snowfall 0.0  
Since 1 July snowfall 0.0  
Snow Depth -    
Sea Level Pressure  
Sea Level Pressure 29.98 in    
Wind  
Wind Speed 9 mph (NNW)    
Max Wind Speed 13 mph    
Max Gust Speed 36 mph    
Visibility 10 miles    
Events      
T = Trace of Precipitation, MM = Missing Value Source: NWS Daily Summary

Daily Weather History Graph

Daily Weather History Graph

Search for Another Location

Airport or City:

Astronomy

Jun. 26, 2013 Rise Set
Actual Time 5:44 AM PDT 8:29 PM PDT
Civil Twilight 5:12 AM PDT 9:00 PM PDT
Nautical Twilight 4:33 AM PDT 9:39 PM PDT
Astronomical Twilight 3:49 AM PDT 10:23 PM PDT
Moon 11:00 PM PDT (6/26) 9:37 AM PDT (6/26)
Length of Visible Light 15h 47m
Length of Day
14h 45m
Waning Gibbous, 84% of the Moon is Illuminated
Jun 26
Waning Gibbous
Jun 29
Last Quarter
Jul 8
New
Jul 15
First Quarter
Jul 22
Full

Hourly Weather History & Observations

Time (PDT) Temp. Heat Index Dew Point Humidity Pressure Visibility Wind Dir Wind Speed Gust Speed Precip Events Conditions
12:53 AM 66.9 °F - 63.0 °F 87% 29.96 in 10.0 mi North 9.2 mph - N/A   Clear
1:53 AM 66.0 °F - 62.1 °F 87% 29.96 in 10.0 mi North 8.1 mph - N/A   Clear
2:53 AM 66.0 °F - 62.1 °F 87% 29.96 in 10.0 mi NNW 6.9 mph - N/A   Clear
3:53 AM 64.9 °F - 62.1 °F 90% 29.96 in 10.0 mi North 9.2 mph - N/A   Clear
4:53 AM 64.9 °F - 62.1 °F 90% 29.97 in 10.0 mi North 6.9 mph - N/A   Clear
5:53 AM 64.9 °F - 62.1 °F 90% 29.99 in 10.0 mi NNW 6.9 mph - N/A   Clear
6:53 AM 66.0 °F - 62.1 °F 87% 30.00 in 10.0 mi NNW 8.1 mph - N/A   Clear
7:53 AM 70.0 °F - 62.1 °F 76% 30.02 in 10.0 mi NNW 8.1 mph - N/A   Clear
8:53 AM 73.0 °F - 62.1 °F 68% 30.02 in 10.0 mi NNW 8.1 mph - N/A   Clear
9:53 AM 75.9 °F - 62.1 °F 62% 30.01 in 10.0 mi NW 8.1 mph - N/A   Clear
10:53 AM 78.1 °F - 63.0 °F 60% 30.02 in 10.0 mi NW 10.4 mph - N/A   Clear
11:53 AM 81.0 °F 82.2 °F 63.0 °F 54% 30.01 in 10.0 mi Variable 3.5 mph - N/A   Clear
12:53 PM 86.0 °F 86.1 °F 61.0 °F 43% 30.00 in 10.0 mi Variable 6.9 mph - N/A   Clear
1:53 PM 89.1 °F 89.0 °F 61.0 °F 39% 29.99 in 10.0 mi North 10.4 mph - N/A   Clear
2:53 PM 90.0 °F 89.7 °F 60.1 °F 37% 29.97 in 10.0 mi North 10.4 mph - N/A   Clear
3:53 PM 89.1 °F 88.8 °F 60.1 °F 38% 29.96 in 10.0 mi Variable 4.6 mph - N/A   Clear
4:53 PM 91.0 °F 90.5 °F 60.1 °F 35% 29.94 in 10.0 mi NNW 10.4 mph - N/A   Clear
5:53 PM 90.0 °F 90.6 °F 63.0 °F 40% 29.93 in 10.0 mi WNW 11.5 mph - N/A   Clear
6:53 PM 88.0 °F 88.7 °F 63.0 °F 43% 29.93 in 10.0 mi NNW 13.8 mph - N/A   Clear
7:53 PM 84.9 °F 85.4 °F 62.1 °F 46% 29.94 in 10.0 mi NNW 13.8 mph - N/A   Clear
8:53 PM 81.0 °F 81.7 °F 61.0 °F 50% 29.95 in 10.0 mi NW 11.5 mph 19.6 mph N/A   Clear
9:53 PM 79.0 °F - 60.1 °F 52% 29.97 in 10.0 mi NNW 10.4 mph - N/A   Clear
10:53 PM 75.9 °F - 61.0 °F 60% 29.99 in 10.0 mi NNW 10.4 mph - N/A   Clear
11:53 PM 73.9 °F - 60.1 °F 62% 30.00 in 10.0 mi NW 10.4 mph - N/A   Clear